Regional Weather Roundup
Issued by NWS Jackson, KY

Home | Current Version | Previous Version | Graphics & Text | Print | Product List | Glossary On
Versions: 1 2 3 4 5 6 7 8 9 10 11 12 13 14 15 16 17 18 19 20 21 22 23 24 25 26 27 28 29 30 31 32 33 34 35 36 37 38 39 40 41 42 43 44 45 46 47 48 49 50
305
ASUS43 KJKL 111610
RWRJKL

EAST KENTUCKY HOURLY WEATHER ROUNDUP
NATIONAL WEATHER SERVICE JACKSON KY
1100 AM EST THU FEB 11 2016

NOTE: "FAIR" INDICATES FEW OR NO CLOUDS BELOW 12,000 FEET WITH
NO SIGNIFICANT WEATHER AND/OR OBSTRUCTIONS TO VISIBILITY.

* THESE REPORTS ARE NOT UNDER NWS QUALITY CONTROL AND MAY NOT
  REPORT WEATHER SUCH AS PRECIPITATION AND FOG.

KYZ079-080-083-085-087-088-110-112-115-119-120-111700
...EASTERN KENTUCKY...

CITY           SKY/WX    TMP DP  RH WIND       PRES   REMARKS
JACKSON        MOSUNNY   22  11  62 CALM      30.23S
LONDON         CLOUDY    23  13  65 CALM      30.25R
SOMERSET*      CLOUDY    25  16  68 CALM      30.28R
MONTICELLO*    CLOUDY    29  19  66 VRB5      30.27R WCI  24
WILLIAMSBURG*  CLOUDY    25  18  74 CALM      30.24S
MIDDLESBORO*   CLOUDY    27  17  65 E3        30.24S
HARLAN APT*    CLOUDY    25  14  63 NW5       30.21S WCI  19
BLACK MTN*       N/A     16  12  86 N3          N/A
BIG SANDY*     CLOUDY    21   9  59 NW5       30.25R WCI  15
MOREHEAD APT*  MOSUNNY   21   7  53 VRB6      30.29R WCI  14
$$

KYZ035-036-041-042-044-050-067-078-099-111700
...CENTRAL KENTUCKY...

CITY           SKY/WX    TMP DP  RH WIND       PRES   REMARKS
MT STERLING*   MOSUNNY   23  10  58 N6        30.28F WCI  16
DANVILLE*      CLOUDY    23  14  68 CALM      30.27S
RICHMOND*      MOSUNNY   23  12  63 CALM      30.26S
LEXINGTON      SUNNY     23  10  57 NE3       30.27S
FRANKFORT      SUNNY     23   7  50 NW6       30.27F WCI  16
$$

KYZ091>093-OHZ055-061-077-WVZ005-015-034-035-042-111700
...SOUTHERN OHIO/WEST VIRGINIA...

CITY           SKY/WX    TMP DP  RH WIND       PRES   REMARKS
COVINGTON      MOSUNNY   19   6  57 CALM      30.28R
COLUMBUS       PTSUNNY   16   5  62 W3        30.25R
DAYTON         PTSUNNY   18   9  68 W10       30.26R WCI   6
WILMINGTON     SUNNY     17   7  64 NW6       30.25R WCI   9
HUNTINGTON     PTSUNNY   20   5  52 VRB5      30.28R WCI  13
CHARLESTON     PTSUNNY   19   3  49 NW9       30.25S WCI   8
PINEVILLE*       N/A     21   3  45 MISG      30.23S
BECKLEY        CLOUDY    13   3  64 NW9       30.10R WCI   1
$$

VAZ002-007-008-TNZ017-027-036-066-071-111700
...SOUTHWEST VIRGINIA/EAST TENNESSEE...

CITY           SKY/WX    TMP DP  RH WIND       PRES   REMARKS
BRISTOL        MOSUNNY   27  15  61 W7        30.20S WCI  19
KNOXVILLE      CLOUDY    32  19  58 CALM      30.23F
OAK RIDGE      PTSUNNY   33  18  53 CALM      30.25S
CROSSVILLE     SUNNY     30  18  60 CALM      30.18S
NASHVILLE      PTSUNNY   30  21  69 NE6       30.27R WCI  24
$$

...KEY TO REMARKS...
VSB - VISIBILITY IN MILES
WCI - WIND CHILL INDEX
HX  - HEAT INDEX

$$




USA.gov is the U.S. government's official web portal to all federal, state and local government web resources and services.